User: anonymous   Login
Location: Lansingburgh
(42.7845°N, 73.6696°W)
Time: 15:49:51
(UTC+00:00)
Language:

COSMO-SKYMED 1 - Orbit

View from above orbital plane
View from above orbital plane
View from above satellite
View from above satellite

Ground track
Ground track

The orbit data is extracted from the following two-line orbital elements,

1 31598U 07023A   20095.48633251  .00000373  00000-0  53445-4 0  9994
2 31598  97.8894 279.7225 0001516  94.4139 265.7261 14.82157457693876
Epoch (UTC): 04 April 2020 11:40:19
Eccentricity: 0.0001516
inclination: 97.8894°
perigee height: 621 km
apogee height: 623 km
right ascension of ascending node: 279.7225°
argument of perigee: 94.4139°
revolutions per day: 14.82157457
mean anomaly at epoch: 265.7261°
orbit number at epoch: 69387

The dashed part of the orbit path shows where the satellite is in the earth's shadow,  

DLR